• Processing (Info)

  • MPEC 2016-R113: 2016 RT19

    The following Minor Planet Electronic Circular may be linked-to from your own Web pages, but must not otherwise be redistributed electronically.

    A form allowing access to any MPEC is at the bottom of this page.


    Read MPEC 2016-R112 Read MPEC 2016-R114


    M.P.E.C. 2016-R113                               Issued 2016 Sept. 11, 01:33 UT
    
         The Minor Planet Electronic Circulars contain information on unusual
             minor planets and routine data on comets.  They are published
        on behalf of Division F of the International Astronomical Union by the
              Minor Planet Center, Smithsonian Astrophysical Observatory,
                              Cambridge, MA 02138, U.S.A.
    
                 Prepared using the Tamkin Foundation Computer Network
    
                                  MPC@CFA.HARVARD.EDU
                URL https://www.minorplanetcenter.net/    ISSN 1523-6714
    
                                       2016 RT19
    
    Observations:
         K16R19T  C2016 09 06.38402 01 44 02.77 +19 17 02.9                qER113G96
         K16R19T  C2016 09 06.39119 01 44 03.67 +19 16 22.9          19.8 VqER113G96
         K16R19T  C2016 09 06.39828 01 44 04.58 +19 15 44.5          19.3 VqER113G96
         K16R19T  C2016 09 06.40543 01 44 05.51 +19 15 05.9          19.7 VqER113G96
         K16R19T* C2016 09 06.43577 01 44 09.39 +19 12 19.0          19.6 VqER113G96
         K16R19T  C2016 09 06.44159 01 44 10.13 +19 11 46.7          19.8 VqER113G96
         K16R19T  C2016 09 06.44740 01 44 10.89 +19 11 14.7          20.1 VqER113G96
         K16R19T  C2016 09 06.99767 01 45 29.11 +18 20 07.3          21.5 VSER113033
         K16R19T  C2016 09 07.00003 01 45 29.44 +18 19 53.8          21.6 VSER113033
         K16R19T  C2016 09 07.00241 01 45 29.74 +18 19 40.4          21.4 VSER113033
         K16R19T KC2016 09 07.02600 01 45 32.61 +18 17 29.7          20.0 RoER113461
         K16R19T KC2016 09 07.03727 01 45 34.10 +18 16 26.6          20.4 RoER113461
         K16R19T  C2016 09 07.07659 01 45 39.41 +18 12 43.8          20.5 VSER113033
         K16R19T  C2016 09 07.07896 01 45 39.73 +18 12 30.1          20.6 VSER113033
         K16R19T  C2016 09 07.08132 01 45 40.02 +18 12 16.8          20.3 VSER113033
         K16R19T  C2016 09 07.11316 01 45 44.15 +18 09 17.0          21.4 VSER113033
         K16R19T  C2016 09 07.11552 01 45 44.46 +18 09 03.8          20.7 VSER113033
         K16R19T  C2016 09 07.11789 01 45 44.79 +18 08 50.3          21.4 VSER113033
         K16R19T KC2016 09 07.33735101 46 15.90 +17 48 10.7          21.0 VuER113H21
         K16R19T KC2016 09 07.34380101 46 16.77 +17 47 34.6          21.0 VuER113H21
         K16R19T KC2016 09 07.35030601 46 17.57 +17 46 57.0          20.7 VuER113H21
         K16R19T KC2016 09 09.01853 01 50 07.23 +15 02 44.4                tER113595
         K16R19T KC2016 09 09.04217 01 50 10.28 +15 00 22.0          21.4 VtER113595
         K16R19T 1C2016 09 09.45876 01 51 06.20 +14 17 37.1                 ER113658
         K16R19T 1C2016 09 09.46027 01 51 06.40 +14 17 27.8                 ER113658
         K16R19T 1C2016 09 09.46175 01 51 06.59 +14 17 18.7                 ER113658
         K16R19T KC2016 09 10.13605 01 52 36.56 +13 06 46.6          20.1 RtER113104
         K16R19T KC2016 09 10.13881 01 52 36.88 +13 06 29.3          20.3 RtER113104
    
    Observer details:
    033 Karl Schwarzschild Observatory, Tautenburg.  Observers B. Stecklum,
        C. Hoegner.  Measurer B. Stecklum.  1.34-m f/3 Schmidt + CCD.
    104 San Marcello Pistoiese.  Observers P. Bacci, M. Maestripieri.  Measurers
        P. Bacci, L. Tesi, G. Fagioli.  0.60-m f/4 reflector + CCD.
    461 University of Szeged, Piszkesteto Stn. (Konkoly).  Observer K. Sarneczky.
        0.60-m Schmidt + CCD.
    595 Farra d'Isonzo.  Observer E. Pettarin.  0.61-m f/4.0 reflector + CCD.
    658 National Research Council of Canada.  Observer D. D. Balam.  1.82-m
        Plaskett telescope + CCD.
    G96 Mt. Lemmon Survey.  Observer D. C. Fuls.  Measurers E. J. Christensen,
        D. C. Fuls, A. R. Gibbs, A. D. Grauer, J. A. Johnson, R. A. Kowalski,
        S. M. Larson, G. J. Leonard, R. G. Matheny, R. L. Seaman, F. C. Shelly.
        1.5-m reflector + 10K CCD.
    H21 Astronomical Research Observatory, Westfield.  Observer R. Holmes.
        Measurers S. Foglia, L. Buzzi, T. Linder, R. Holmes.  0.76-m f/3.0
        astrograph + CCD.
    
    Orbital elements:
    2016 RT19                                                Earth MOID = 0.1881 AU
    Epoch 2016 July 31.0 TT = JDT 2457600.5                 MPC
    M 318.79789              (2000.0)            P               Q
    n   0.64118904     Peri.  197.85393     +0.96802720     -0.24876555
    a   1.3319216      Node   176.09435     +0.24545464     +0.96586824
    e   0.1083114      Incl.   28.24496     -0.05172392     -0.07220975
    P   1.54           H   21.7           G   0.15           U   8
    Residuals in seconds of arc
    160906 G96  0.1-  0.5+    160907 461  0.2-  0.4-    160907 H21  0.2+  0.1-
    160906 G96  0.4-  0.3-    160907 461  0.2+  0.2-    160909 595  0.9-  0.9-
    160906 G96  0.4-  0.0     160907 033  0.1+  0.1+    160909 595  0.4+  0.7+
    160906 G96  0.1-  0.6+    160907 033  0.3+  0.2-    160909 658  0.4-  0.2+
    160906 G96  0.1-  0.0     160907 033  0.1+  0.2-    160909 658  0.2-  0.3+
    160906 G96  0.2-  0.3-    160907 033  0.0   0.1-    160909 658  0.1-  0.4+
    160906 G96  0.1+  0.3-    160907 033  0.1+  0.1+    160910 104  0.4+  0.5-
    160906 033  0.1-  0.1+    160907 033  0.4+  0.0     160910 104  0.1+  0.2-
    160907 033  0.2+  0.1-    160907 H21  0.1-  0.3-
    160907 033  0.1+  0.2-    160907 H21  0.6+  0.4+
    
    Ephemeris:
    2016 RT19                a,e,i = 1.33, 0.11, 28                  q = 1.1877
    Date    TT    R. A. (2000) Decl.     Delta      r     Elong.  Phase     V
    2016 08 12    00 39 01.0 +40 23 36   0.4202  1.2171   109.1    51.9    22.2
    ...
    2016 08 27    01 18 21.6 +31 39 34   0.3152  1.2030   120.9    46.1    21.3
    ...
    2016 09 04    01 38 21.8 +22 43 23   0.2681  1.1972   129.6    40.5    20.8
    ...
    2016 09 10    01 52 18.9 +13 21 33   0.2411  1.1937   136.6    35.4    20.4
    2016 09 11    01 54 31.6 +11 34 20   0.2375  1.1932   137.8    34.5    20.4
    2016 09 12    01 56 42.1 +09 43 32   0.2342  1.1927   138.8    33.7    20.3
    ...
    2016 09 18    02 08 53.6 -02 21 11   0.2217  1.1903   143.5    30.2    20.1
    ...
    2016 09 26    02 22 23.4 -19 10 15   0.2255  1.1883   141.9    31.4    20.2
    ...
    2016 10 11    02 37 38.5 -42 35 21   0.2841  1.1883   126.2    42.7    21.0
    
    A. U. Tomatic                (C) Copyright 2016 MPC           M.P.E.C. 2016-R113
    

    Read MPEC 2016-R112 Read MPEC 2016-R114


    MPEC number:

    Enter an MPEC number in one of the following forms:

    • 1997-B01 (the full form)
    • J97B01 (the packed version of the full form)
    • B01 (the abbreviated form)